Location: Geroldsau
(48.7259°N, 8.2466°E)
Time: 15:26:15
(UTC+00:00)

Meteor 1-26 Rocket - Pass Details

Date: 20 June 2021
Orbit: 807 x 928 km, 81.3° (Epoch: 31 July)

Event Time Altitude Azimuth Distance (km) Brightness Sun altitude
Rises 01:46:55 0° 347° (NNW) 3,484 8.1 -11.5°
Reaches altitude 10° 01:49:20 10° 348° (NNW) 2,559 7.4 -11.3°
Maximum altitude 01:55:11 87° 262° (W) 913 4.4 -10.8°
Drops below altitude 10° 02:01:10 10° 172° (S) 2,607 6.3 -10.2°
Enters shadow 02:03:16 - 172° (S) 3,402 6.9 -10.0°
